"Pseudo-MPEC" for P116j1W

Created 2020 Sep 19 3:07:40 UT using Find_Orb

Click here for an explanation of pseudo-MPECs

 
 Astrometry: 
     P116j1W  C2020 09 14]CD9yC+HG_?8rSlq^^KV7Z7'@64r+Koeo/d8:f`y_RL8xCQ\Has(F52
     P116j1W  C2020 09 14yNd?dxlI#a4rJAstrometryRe?%WWDJUg!kiber;m65Wh[kvncGFF52
     P116j1W  C2020 09 14(f-^u)EMJ?:=^f2QGbj(h[Y6x\'FTh*Oredacted;-gOZ8)yRF7rF52
     P116j1W  C2020 09 15YhtZP=ryv.QVD2x!,N.NWBf`vra3jtT,\qY5Ggf#2y%click0Tf8F51
     P116j1W  C2020 09 15bnI^ZdZ,KnPEJHS0*%isLWhere9*C8c-l).wIm13'=8uG7yokdSpF51
     P116j1W  C2020 09 15Svd@Z-2D;YMogK4\,TDkU\EKM/Xwb_MM%.47,)J3x8^qu#B)Gh^)F51
     P116j1W  C2020 09 163c0Bva^[ie:Q+]]Vp6H/-N^0KAWmY;C%?g:T0naZSxqcH-11:`oJF51
     P116j1W  C2020 09 16ej\XJQ8mVnfw.@-hhHuFt_o[pv0POt6-Dgy7xmWuVQ]D?+for!;,F51
     P116j1W  C2020 09 16OT!0J[`5e;d`Qr*sKvq?-lO_Os$5NsA#Mv4explanationRWNgwiF51

Station data:
(F51) Pan-STARRS 1, Haleakala  (N20.707235 W156.255910)  US/Hawaii.
   Observers N. Primak, A. Schultz, S. Watters, J. Thiel, T. Goggia. Measurer
   PS1 Science Consortium. 1.8-m Ritchey-Chrétien + CCD.
(F52) Pan-STARRS 2, Haleakala  (N20.707384 W156.255910)  US/Hawaii. 1.8-m
   Ritchey-Chrétien + CCD.

Orbital elements:  P116j1W
   Perihelion 2020 Sep 11.056274 +/- 1.41 TT =  1:21:02 (JD 2459103.556274)
Epoch 2020 Sep 16.0 TT = JDT 2459108.5   Earth MOID: 0.3323   Ma: 0.0418
M   1.56931122 +/- 0.48             (J2000 ecliptic)          AutoNEOCP
n   0.31743488 +/- 0.0207           Peri.  347.75722 +/- 1.1
a   2.12830050 +/- 0.0925           Node   359.28805 +/- 0.19
e   0.3712325 +/- 0.0203            Incl.    6.68204 +/- 0.31
P   3.10                   H 24.3   G  0.15   U 10.1  
q 1.33820606 +/- 0.0157    Q 2.91839495 +/- 0.177
From 9 observations 2020 Sept. 14-16; mean residual 0".11
Residuals in arcseconds: 
200914 F52  .19+  .07+    200915 F51  .00   .12-    200916 F51  .04+  .03-    
200914 F52  .01+  .11+    200915 F51  .14-  .09-    200916 F51  .02-  .13+    
200914 F52  .12-  .17-    200915 F51  .05-  .17+    200916 F51  .07+  .08-    

Ephemerides (geocentric):
Date (UTC) HH   RA              Dec         delta   r     elong  mag " sig PA
---- -- -- --  -------------   -----------  ------ ------ -----  --- ---- ---
2020 09 19 03  23 03 28.675   -09 06 51.87  .34239 1.3402 166.8 23.3 3.03  93
2020 09 19 04  23 03 28.058   -09 05 58.89  .34246 1.3402 166.8 23.3 3.11  94
2020 09 19 05  23 03 27.443   -09 05 05.91  .34253 1.3402 166.7 23.3 3.18  94
2020 09 19 06  23 03 26.831   -09 04 12.92  .34260 1.3403 166.7 23.3 3.25  94
2020 09 19 07  23 03 26.221   -09 03 19.94  .34266 1.3403 166.7 23.3 3.33  95
2020 09 19 08  23 03 25.614   -09 02 26.95  .34273 1.3403 166.6 23.3 3.40  95
2020 09 19 09  23 03 25.010   -09 01 33.95  .34280 1.3403 166.6 23.3 3.48  95
2020 09 19 10  23 03 24.409   -09 00 40.96  .34287 1.3403 166.6 23.3 3.55  95
2020 09 19 11  23 03 23.810   -08 59 47.96  .34294 1.3404 166.5 23.3 3.63  95
2020 09 19 12  23 03 23.213   -08 58 54.96  .34301 1.3404 166.5 23.3 3.71  96
2020 09 19 13  23 03 22.620   -08 58 01.96  .34308 1.3404 166.5 23.3 3.79  96
2020 09 19 14  23 03 22.029   -08 57 08.95  .34315 1.3404 166.4 23.3 3.87  96
2020 09 19 15  23 03 21.441   -08 56 15.95  .34322 1.3405 166.4 23.3 3.95  96
2020 09 19 16  23 03 20.855   -08 55 22.94  .34329 1.3405 166.4 23.3 4.04  96
2020 09 19 17  23 03 20.273   -08 54 29.93  .34336 1.3405 166.3 23.3 4.12  97
2020 09 19 18  23 03 19.693   -08 53 36.92  .34343 1.3405 166.3 23.3 4.21  97
2020 09 19 19  23 03 19.115   -08 52 43.90  .34350 1.3405 166.3 23.3 4.29  97
2020 09 19 20  23 03 18.541   -08 51 50.89  .34357 1.3406 166.2 23.3 4.38  97
2020 09 19 21  23 03 17.969   -08 50 57.87  .34364 1.3406 166.2 23.3 4.47  97
2020 09 19 22  23 03 17.400   -08 50 04.85  .34371 1.3406 166.2 23.3 4.55  97
2020 09 19 23  23 03 16.834   -08 49 11.83  .34379 1.3406 166.1 23.3 4.64  98
2020 09 20 00  23 03 16.270   -08 48 18.81  .34386 1.3407 166.1 23.3 4.73  98
2020 09 20 01  23 03 15.709   -08 47 25.79  .34393 1.3407 166.1 23.3 4.83  98
2020 09 20 02  23 03 15.152   -08 46 32.76  .34400 1.3407 166.0 23.3 4.92  98
2020 09 20 03  23 03 14.596   -08 45 39.73  .34408 1.3407 166.0 23.3 5.01  98
2020 09 20 04  23 03 14.044   -08 44 46.71  .34415 1.3407 166.0 23.3 5.11  98
2020 09 20 05  23 03 13.495   -08 43 53.68  .34422 1.3408 165.9 23.3 5.20  98
2020 09 20 06  23 03 12.948   -08 43 00.65  .34430 1.3408 165.9 23.3 5.30  99
2020 09 20 07  23 03 12.404   -08 42 07.62  .34437 1.3408 165.9 23.3 5.39  99
2020 09 20 08  23 03 11.863   -08 41 14.59  .34445 1.3408 165.8 23.3 5.49  99
2020 09 20 09  23 03 11.325   -08 40 21.56  .34452 1.3409 165.8 23.3 5.59  99
2020 09 20 10  23 03 10.790   -08 39 28.52  .34459 1.3409 165.8 23.3 5.69  99
2020 09 20 11  23 03 10.257   -08 38 35.49  .34467 1.3409 165.7 23.3 5.79  99
2020 09 20 12  23 03 09.727   -08 37 42.45  .34474 1.3409 165.7 23.3 5.89  99
2020 09 20 13  23 03 09.201   -08 36 49.42  .34482 1.3410 165.7 23.3 6.00  99
2020 09 20 14  23 03 08.677   -08 35 56.38  .34489 1.3410 165.6 23.3 6.10  99
2020 09 20 15  23 03 08.156   -08 35 03.35  .34497 1.3410 165.6 23.3 6.21 100
2020 09 20 16  23 03 07.638   -08 34 10.31  .34505 1.3410 165.6 23.3 6.31 100
2020 09 20 17  23 03 07.123   -08 33 17.27  .34512 1.3411 165.5 23.3 6.42 100
2020 09 20 18  23 03 06.610   -08 32 24.24  .34520 1.3411 165.5 23.3 6.53 100
2020 09 20 19  23 03 06.101   -08 31 31.20  .34528 1.3411 165.5 23.3 6.63 100
2020 09 20 20  23 03 05.595   -08 30 38.16  .34535 1.3411 165.4 23.3 6.74 100
2020 09 20 21  23 03 05.091   -08 29 45.12  .34543 1.3412 165.4 23.3 6.86 100
2020 09 20 22  23 03 04.591   -08 28 52.08  .34551 1.3412 165.3 23.3 6.97 100
2020 09 20 23  23 03 04.093   -08 27 59.05  .34558 1.3412 165.3 23.3 7.08 100
2020 09 21 00  23 03 03.598   -08 27 06.01  .34566 1.3412 165.3 23.3 7.19 100
2020 09 21 01  23 03 03.107   -08 26 12.97  .34574 1.3413 165.2 23.3 7.31 100
2020 09 21 02  23 03 02.618   -08 25 19.93  .34582 1.3413 165.2 23.3 7.42 100